Climatologie pour Saint-Brevin les Pins
Jour • Résumé pour avril 16, 2017 Système :  Métrique    Anglais   Mixte
« - 1 jour
+ 1 jour »
Jour Semaine Mois Année Personnalisé
  Maximum : Minimum : Moyenne :
Température sous abri : -17.8 °C -13.4 °C -11.2 °C
Point de rosée : -17.8 °C -14.2 °C -13.2 °C
Humidité : Humidity % 58 % 79 %
Vitesse du vent : 0 km/h 0 km/h 7.1 km/h
Rafale : 0 km/h - -
Direction :- - WSW
Pression : 0 hPa 34693 hPa -
Précipitations : 0 mm    
Historical Graphs
 
 
Tableau de données pour avril 16, 2017
Heure Tempé Pt rosée Pression Vent Vitesse Rafale Humidité Taux pluie (/hr) Soleil
-17.8 °C -17.8 °C 0 hPa Calm     Humidity % 0 mm SolarRadiationWatts/m^2 W/m2 Conditions
00:00 -11.7 °C -12.5 °C 34716.7 hPa Calm     91 % 0 mm 0 W/m2
00:05 -11.7 °C -12.5 °C 34716.7 hPa Calm     91 % 0 mm 0 W/m2
00:10 -11.7 °C -12.5 °C 34716.7 hPa Calm     91 % 0 mm 0 W/m2
00:15 -11.8 °C -12.6 °C 34716.7 hPa NNE 2.6 km/h 2.6 km/h 91 % 0 mm 0 W/m2
00:20 -11.7 °C -12.4 °C 34716.7 hPa Calm   7.7 km/h 92 % 0 mm 0 W/m2
00:25 -11.7 °C -12.4 °C 34716.7 hPa Calm   7.7 km/h 92 % 0 mm 0 W/m2
00:30 -11.7 °C -12.4 °C 34716.7 hPa NW 2.6 km/h 15.6 km/h 92 % 0 mm 0 W/m2
00:35 -11.7 °C -12.5 °C 34716.7 hPa NNW 2.6 km/h 15.6 km/h 91 % 0 mm 0 W/m2
00:40 -11.7 °C -12.5 °C 34716.7 hPa Calm   12.9 km/h 91 % 0 mm 0 W/m2
00:45 -11.7 °C -12.4 °C 34716.7 hPa Calm   12.9 km/h 91 % 0 mm 0 W/m2
00:50 -11.6 °C -12.5 °C 34726.8 hPa NW 7.7 km/h 10.3 km/h 90 % 0 mm 0 W/m2
00:55 -11.6 °C -12.5 °C 34716.7 hPa Calm   7.7 km/h 90 % 0 mm 0 W/m2
01:00 -11.6 °C -12.5 °C 34716.7 hPa NW 5.1 km/h 12.9 km/h 90 % 0 mm 0 W/m2
01:05 -11.7 °C -12.4 °C 34726.8 hPa NNW 5.1 km/h 12.9 km/h 91 % 0 mm 0 W/m2
01:10 -11.6 °C -12.5 °C 34716.7 hPa Calm   10.3 km/h 90 % 0 mm 0 W/m2
01:15 -11.7 °C -12.6 °C 34716.7 hPa Calm   7.7 km/h 90 % 0 mm 0 W/m2
01:20 -11.8 °C -12.6 °C 34726.8 hPa NNW 10.3 km/h 10.3 km/h 91 % 0 mm 0 W/m2
01:25 -11.8 °C -12.6 °C 34726.8 hPa Calm   10.3 km/h 91 % 0 mm 0 W/m2
01:30 -11.8 °C -12.5 °C 34726.8 hPa Calm   10.3 km/h 92 % 0 mm 0 W/m2
01:35 -11.8 °C -12.5 °C 34726.8 hPa Calm   7.7 km/h 92 % 0 mm 0 W/m2
01:40 -11.8 °C -12.5 °C 34726.8 hPa Calm   5.1 km/h 92 % 0 mm 0 W/m2
01:45 -11.8 °C -12.5 °C 34726.8 hPa Calm   5.1 km/h 92 % 0 mm 0 W/m2
01:50 -11.8 °C -12.5 °C 34726.8 hPa Calm   5.1 km/h 92 % 0 mm 0 W/m2
01:55 -11.8 °C -12.5 °C 34726.8 hPa Calm   2.6 km/h 92 % 0 mm 0 W/m2
02:00 -11.8 °C -12.5 °C 34726.8 hPa Calm   2.6 km/h 92 % 0 mm 0 W/m2
02:05 -11.8 °C -12.4 °C 34726.8 hPa Calm   2.6 km/h 93 % 0 mm 0 W/m2
02:10 -11.8 °C -12.4 °C 34726.8 hPa WNW 2.6 km/h 5.1 km/h 93 % 0 mm 0 W/m2
02:15 -11.8 °C -12.4 °C 34740.4 hPa Calm   5.1 km/h 93 % 0 mm 0 W/m2
02:20 -11.8 °C -12.4 °C 34740.4 hPa Calm   5.1 km/h 93 % 0 mm 0 W/m2
02:25 -11.8 °C -12.4 °C 34740.4 hPa Calm   2.6 km/h 93 % 0 mm 0 W/m2
02:30 -11.8 °C -12.4 °C 34740.4 hPa Calm   2.6 km/h 93 % 0 mm 0 W/m2
02:35 -11.8 °C -12.4 °C 34740.4 hPa Calm   7.7 km/h 93 % 0 mm 0 W/m2
02:40 -11.8 °C -12.4 °C 34740.4 hPa Calm   7.7 km/h 93 % 0 mm 0 W/m2
02:45 -11.8 °C -12.4 °C 34740.4 hPa Calm   7.7 km/h 93 % 0 mm 0 W/m2
02:50 -11.8 °C -12.4 °C 34740.4 hPa NNE 2.6 km/h 12.9 km/h 93 % 0 mm 0 W/m2
02:55 -11.8 °C -12.4 °C 34740.4 hPa Calm   12.9 km/h 93 % 0 mm 0 W/m2
03:00 -11.8 °C -12.4 °C 34740.4 hPa Calm   7.7 km/h 93 % 0 mm 0 W/m2
03:05 -11.8 °C -12.4 °C 34740.4 hPa Calm   7.7 km/h 93 % 0 mm 0 W/m2
03:10 -11.8 °C -12.4 °C 34740.4 hPa Calm   7.7 km/h 93 % 0 mm 0 W/m2
03:15 -11.8 °C -12.4 °C 34740.4 hPa Calm   7.7 km/h 93 % 0 mm 0 W/m2
03:20 -11.8 °C -12.4 °C 34740.4 hPa Calm   12.9 km/h 93 % 0 mm 0 W/m2
03:25 -11.8 °C -12.4 °C 34740.4 hPa Calm   12.9 km/h 93 % 0 mm 0 W/m2
03:30 -11.8 °C -12.5 °C 34740.4 hPa Calm   10.3 km/h 92 % 0 mm 0 W/m2
03:35 -11.8 °C -12.5 °C 34740.4 hPa NW 2.6 km/h 10.3 km/h 92 % 0 mm 0 W/m2
03:40 -11.8 °C -12.6 °C 34740.4 hPa Calm   10.3 km/h 92 % 0 mm 0 W/m2
03:45 -11.8 °C -12.6 °C 34740.4 hPa Calm   10.3 km/h 92 % 0 mm 0 W/m2
03:50 -11.8 °C -12.6 °C 34740.4 hPa Calm   5.1 km/h 92 % 0 mm 0 W/m2
04:00 -11.9 °C -12.6 °C 34740.4 hPa Calm   2.6 km/h 92 % 0 mm 0 W/m2
04:05 -11.9 °C -12.6 °C 34740.4 hPa Calm   10.3 km/h 92 % 0 mm 0 W/m2
04:10 -11.9 °C -12.6 °C 34740.4 hPa Calm   10.3 km/h 92 % 0 mm 0 W/m2
04:15 -12 °C -12.7 °C 34740.4 hPa North 2.6 km/h 10.3 km/h 92 % 0 mm 0 W/m2
04:20 -12 °C -12.7 °C 34740.4 hPa Calm   10.3 km/h 92 % 0 mm 0 W/m2
04:25 -12 °C -12.7 °C 34740.4 hPa North 7.7 km/h 10.3 km/h 92 % 0 mm 0 W/m2
04:30 -12 °C -12.7 °C 34740.4 hPa Calm   12.9 km/h 92 % 0 mm 0 W/m2
04:35 -12 °C -12.8 °C 34726.8 hPa NNE 7.7 km/h 12.9 km/h 91 % 0 mm 0 W/m2
04:40 -12 °C -12.8 °C 34740.4 hPa Calm   12.9 km/h 91 % 0 mm 0 W/m2
04:45 -12 °C -12.8 °C 34740.4 hPa North 2.6 km/h 12.9 km/h 91 % 0 mm 0 W/m2
04:50 -12 °C -12.9 °C 34740.4 hPa NNW 7.7 km/h 7.7 km/h 90 % 0 mm 0 W/m2
04:55 -12.1 °C -12.9 °C 34726.8 hPa Calm   7.7 km/h 90 % 0 mm 0 W/m2
05:00 -12.1 °C -12.8 °C 34726.8 hPa Calm   5.1 km/h 91 % 0 mm 0 W/m2
05:05 -12.1 °C -12.8 °C 34726.8 hPa NNW 5.1 km/h 5.1 km/h 91 % 0 mm 0 W/m2
05:10 -12.1 °C -12.9 °C 34726.8 hPa Calm   5.1 km/h 90 % 0 mm 0 W/m2
05:20 -12.1 °C -12.9 °C 34726.8 hPa Calm   5.1 km/h 90 % 0 mm 0 W/m2
05:25 -12.1 °C -12.9 °C 34726.8 hPa Calm   5.1 km/h 91 % 0 mm 0 W/m2
05:30 -12.2 °C -12.9 °C 34726.8 hPa Calm   5.1 km/h 91 % 0 mm 0 W/m2
05:35 -12.2 °C -12.9 °C 34726.8 hPa Calm     91 % 0 mm 0 W/m2
05:40 -12.2 °C -13 °C 34726.8 hPa NNW 2.6 km/h 2.6 km/h 91 % 0 mm 0 W/m2
05:45 -12.3 °C -12.9 °C 34726.8 hPa Calm   10.3 km/h 92 % 0 mm 0 W/m2
05:50 -12.2 °C -13 °C 34726.8 hPa Calm   10.3 km/h 91 % 0 mm 0 W/m2
05:55 -12.2 °C -13 °C 34726.8 hPa Calm   10.3 km/h 91 % 0 mm 0 W/m2
06:00 -12.2 °C -12.9 °C 34726.8 hPa Calm   10.3 km/h 91 % 0 mm 0 W/m2
06:05 -12.2 °C -13.1 °C 34726.8 hPa Calm   10.3 km/h 90 % 0 mm 0 W/m2
06:10 -12.2 °C -13.1 °C 34726.8 hPa Calm   12.9 km/h 90 % 0 mm 0 W/m2
06:15 -12.2 °C -13.1 °C 34726.8 hPa North 2.6 km/h 12.9 km/h 90 % 0 mm 0 W/m2
06:20 -12.2 °C -13.2 °C 34726.8 hPa Calm   12.9 km/h 88 % 0 mm 0 W/m2
06:25 -12.2 °C -13.2 °C 34726.8 hPa North 5.1 km/h 12.9 km/h 88 % 0 mm 0 W/m2
06:30 -12.2 °C -13.2 °C 34726.8 hPa North 2.6 km/h 12.9 km/h 88 % 0 mm 0 W/m2
06:35 -12.2 °C -13.3 °C 34726.8 hPa Calm   12.9 km/h 88 % 0 mm 0 W/m2
06:40 -12.3 °C -13.3 °C 34726.8 hPa Calm   5.1 km/h 88 % 0 mm 0 W/m2
06:45 -12.3 °C -13.2 °C 34726.8 hPa Calm   7.7 km/h 89 % 0 mm 0 W/m2
06:50 -12.3 °C -13.2 °C 34726.8 hPa Calm   7.7 km/h 89 % 0 mm 0 W/m2
06:55 -12.3 °C -13.3 °C 34726.8 hPa Calm   5.1 km/h 89 % 0 mm 0 W/m2
07:00 -12.3 °C -13.3 °C 34726.8 hPa Calm   2.6 km/h 89 % 0 mm 0 W/m2
07:05 -12.3 °C -13.2 °C 34740.4 hPa Calm   2.6 km/h 90 % 0 mm 0 W/m2
07:10 -12.4 °C -13.3 °C 34740.4 hPa Calm   2.6 km/h 90 % 0 mm 0 W/m2
07:15 -12.4 °C -13.3 °C 34740.4 hPa Calm   2.6 km/h 90 % 0 mm 0 W/m2
07:20 -12.4 °C -13.3 °C 34740.4 hPa Calm   5.1 km/h 90 % 0 mm 0 W/m2
07:25 -12.4 °C -13.2 °C 34740.4 hPa Calm   5.1 km/h 90 % 0 mm 5 W/m2
07:30 -12.4 °C -13.3 °C 34740.4 hPa Calm   5.1 km/h 90 % 0 mm 7 W/m2
07:35 -12.4 °C -13.4 °C 34740.4 hPa North 5.1 km/h 7.7 km/h 89 % 0 mm 11 W/m2
07:40 -12.4 °C -13.2 °C 34740.4 hPa Calm   7.7 km/h 90 % 0 mm 12 W/m2
07:45 -12.4 °C -13.4 °C 34740.4 hPa North 5.1 km/h 10.3 km/h 89 % 0 mm 16 W/m2
07:50 -12.4 °C -13.4 °C 34740.4 hPa NNE 7.7 km/h 15.6 km/h 88 % 0 mm 23 W/m2
07:55 -12.3 °C -13.4 °C 34740.4 hPa NNE 2.6 km/h 15.6 km/h 88 % 0 mm 26 W/m2
08:00 -12.3 °C -13.5 °C 34740.4 hPa NNE 2.6 km/h 12.9 km/h 87 % 0 mm 33 W/m2
08:05 -12.3 °C -13.4 °C 34740.4 hPa NNE 7.7 km/h 15.6 km/h 87 % 0 mm 37 W/m2
08:10 -12.3 °C -13.6 °C 34750.5 hPa NNE 7.7 km/h 20.8 km/h 86 % 0 mm 49 W/m2
08:15 -12.2 °C -13.6 °C 34750.5 hPa North 2.6 km/h 23.3 km/h 85 % 0 mm 53 W/m2
08:20 -12.1 °C -13.4 °C 34750.5 hPa Calm   23.3 km/h 85 % 0 mm 65 W/m2
08:25 -12.1 °C -13.4 °C 34760.7 hPa NNE 5.1 km/h 18.2 km/h 85 % 0 mm 60 W/m2
08:35 -12 °C -13.4 °C 34760.7 hPa North 2.6 km/h 20.8 km/h 84 % 0 mm 79 W/m2
08:40 -12 °C -13.4 °C 34760.7 hPa NNE 12.9 km/h 20.8 km/h 84 % 0 mm 100 W/m2
08:45 -11.9 °C -13.5 °C 34760.7 hPa North 2.6 km/h 18.2 km/h 83 % 0 mm 128 W/m2
08:50 -11.9 °C -13.5 °C 34760.7 hPa North 10.3 km/h 18.2 km/h 82 % 0 mm 107 W/m2
08:55 -11.9 °C -13.6 °C 34760.7 hPa NE 5.1 km/h 23.3 km/h 81 % 0 mm 121 W/m2
09:00 -11.9 °C -13.6 °C 34760.7 hPa NE 2.6 km/h 23.3 km/h 81 % 0 mm 137 W/m2
09:05 -11.8 °C -13.4 °C 34760.7 hPa NNE 5.1 km/h 18.2 km/h 82 % 0 mm 163 W/m2
09:10 -11.7 °C -13.4 °C 34760.7 hPa NE 5.1 km/h 15.6 km/h 81 % 0 mm 176 W/m2
09:15 -11.7 °C -13.7 °C 34760.7 hPa NE 20.8 km/h 20.8 km/h 78 % 0 mm 174 W/m2
09:20 -11.7 °C -13.9 °C 34774.2 hPa NNE 7.7 km/h 20.8 km/h 76 % 0 mm 207 W/m2
09:25 -11.6 °C -13.9 °C 34774.2 hPa NNE 10.3 km/h 20.8 km/h 76 % 0 mm 174 W/m2
09:30 -11.6 °C -13.7 °C 34774.2 hPa NNE 2.6 km/h 20.8 km/h 77 % 0 mm 199 W/m2
09:35 -11.5 °C -13.8 °C 34774.2 hPa NE 2.6 km/h 18.2 km/h 75 % 0 mm 229 W/m2
09:40 -11.4 °C -13.9 °C 34774.2 hPa ENE 2.6 km/h 18.2 km/h 74 % 0 mm 225 W/m2
09:45 -11.3 °C -13.8 °C 34774.2 hPa North 5.1 km/h 20.8 km/h 74 % 0 mm 244 W/m2
09:50 -11.3 °C -13.9 °C 34774.2 hPa NE 18.2 km/h 20.8 km/h 73 % 0 mm 223 W/m2
09:55 -11.4 °C -14 °C 34774.2 hPa NNW 12.9 km/h 20.8 km/h 73 % 0 mm 276 W/m2
10:00 -11.3 °C -13.9 °C 34774.2 hPa North 5.1 km/h 20.8 km/h 73 % 0 mm 232 W/m2
10:05 -11.2 °C -13.4 °C 34774.2 hPa North 5.1 km/h 18.2 km/h 76 % 0 mm 359 W/m2
10:10 -11.2 °C -13.8 °C 34774.2 hPa NW 2.6 km/h 20.8 km/h 72 % 0 mm 584 W/m2
10:15 -11 °C -13.8 °C 34774.2 hPa NNW 2.6 km/h 20.8 km/h 71 % 0 mm 513 W/m2
10:20 -10.9 °C -13.9 °C 34774.2 hPa North 12.9 km/h 23.3 km/h 69 % 0 mm 494 W/m2
10:25 -10.9 °C -13.8 °C 34774.2 hPa North 10.3 km/h 23.3 km/h 70 % 0 mm 411 W/m2
10:30 -10.9 °C -13.9 °C 34774.2 hPa NW 5.1 km/h 20.8 km/h 69 % 0 mm 339 W/m2
10:40 -10.7 °C -13.4 °C 34774.2 hPa NE 2.6 km/h 15.6 km/h 72 % 0 mm 515 W/m2
10:45 -10.4 °C -13.4 °C 34774.2 hPa North 2.6 km/h 20.8 km/h 70 % 0 mm 559 W/m2
10:50 -10.4 °C -13.3 °C 34774.2 hPa NE 10.3 km/h 20.8 km/h 70 % 0 mm 557 W/m2
10:55 -10.4 °C -13.7 °C 34774.2 hPa Calm   23.3 km/h 68 % 0 mm 578 W/m2
11:00 -10.6 °C -14 °C 34774.2 hPa Calm   23.3 km/h 66 % 0 mm 582 W/m2
11:05 -10.5 °C -14.2 °C 34774.2 hPa NNW 2.6 km/h 15.6 km/h 64 % 0 mm 594 W/m2
11:10 -10.5 °C -13.8 °C 34774.2 hPa NNE 12.9 km/h 18.2 km/h 67 % 0 mm 601 W/m2
11:15 -10.1 °C -13.3 °C 34774.2 hPa NE 12.9 km/h 20.8 km/h 68 % 0 mm 624 W/m2
11:20 -10.1 °C -13.7 °C 34774.2 hPa NNE 12.9 km/h 20.8 km/h 65 % 0 mm 631 W/m2
11:25 -10.2 °C -13.6 °C 34774.2 hPa WNW 7.7 km/h 23.3 km/h 66 % 0 mm 647 W/m2
11:30 -9.8 °C -13.4 °C 34774.2 hPa WNW 15.6 km/h 23.3 km/h 65 % 0 mm 650 W/m2
11:35 -9.9 °C -14.2 °C 34774.2 hPa North 10.3 km/h 23.3 km/h 60 % 0 mm 668 W/m2
11:40 -9.8 °C -13.3 °C 34774.2 hPa North 2.6 km/h 20.8 km/h 66 % 0 mm 691 W/m2
11:45 -9.9 °C -13.4 °C 34774.2 hPa NNW 7.7 km/h 18.2 km/h 66 % 0 mm 118 W/m2
11:50 -10.2 °C -14 °C 34774.2 hPa NNE 5.1 km/h 18.2 km/h 63 % 0 mm 132 W/m2
11:55 -9.9 °C -13.4 °C 34774.2 hPa ENE 10.3 km/h 20.8 km/h 66 % 0 mm 782 W/m2
12:00 -10.1 °C -13.8 °C 34774.2 hPa North 7.7 km/h 20.8 km/h 64 % 0 mm 181 W/m2
12:05 -9.7 °C -13.7 °C 34774.2 hPa NNE 5.1 km/h 20.8 km/h 62 % 0 mm 888 W/m2
12:10 -9.6 °C -14 °C 34774.2 hPa Calm   23.3 km/h 59 % 0 mm 533 W/m2
12:15 -9.6 °C -13.8 °C 34774.2 hPa NNE 10.3 km/h 23.3 km/h 60 % 0 mm 923 W/m2
12:20 -9.6 °C -13.6 °C 34774.2 hPa NNW 10.3 km/h 18.2 km/h 62 % 0 mm 359 W/m2
12:25 -9.9 °C -13.9 °C 34774.2 hPa NW 10.3 km/h 20.8 km/h 62 % 0 mm 260 W/m2
12:30 -10.2 °C -13.7 °C 34774.2 hPa WNW 7.7 km/h 20.8 km/h 66 % 0 mm 889 W/m2
12:35 -9.6 °C -13.6 °C 34774.2 hPa NNE 7.7 km/h 15.6 km/h 62 % 0 mm 287 W/m2
12:40 -9.7 °C -13.7 °C 34774.2 hPa WNW 7.7 km/h 12.9 km/h 62 % 0 mm 933 W/m2
12:45 -9.7 °C -13.8 °C 34760.7 hPa North 2.6 km/h 23.3 km/h 61 % 0 mm 933 W/m2
12:55 -9.7 °C -13.7 °C 34760.7 hPa West 10.3 km/h 28.5 km/h 62 % 0 mm 316 W/m2
13:00 -9.7 °C -13.4 °C 34760.7 hPa SW 12.9 km/h 28.5 km/h 64 % 0 mm 928 W/m2
13:05 -9.5 °C -13.5 °C 34760.7 hPa WSW 18.2 km/h 23.3 km/h 62 % 0 mm 879 W/m2
13:10 -9.8 °C -13.6 °C 34760.7 hPa West 10.3 km/h 18.2 km/h 63 % 0 mm 882 W/m2
13:15 -9.5 °C -13.5 °C 34760.7 hPa West 5.1 km/h 18.2 km/h 62 % 0 mm 879 W/m2
13:20 -9.4 °C -13.2 °C 34760.7 hPa WSW 18.2 km/h 23.3 km/h 64 % 0 mm 905 W/m2
13:30 -9.6 °C -13.3 °C 34760.7 hPa SW 18.2 km/h 33.6 km/h 64 % 0 mm 861 W/m2
13:35 -9.6 °C -13.2 °C 34760.7 hPa West 12.9 km/h 28.5 km/h 65 % 0 mm 826 W/m2
13:40 -9.6 °C -12.9 °C 34760.7 hPa WSW 7.7 km/h 28.5 km/h 67 % 0 mm 824 W/m2
13:45 -9.4 °C -12.8 °C 34760.7 hPa West 20.8 km/h 28.5 km/h 67 % 0 mm 824 W/m2
13:50 -9.1 °C -12.3 °C 34750.5 hPa West 5.1 km/h 25.9 km/h 68 % 0 mm 817 W/m2
13:55 -9.3 °C -13 °C 34750.5 hPa West 18.2 km/h 28.5 km/h 65 % 0 mm 817 W/m2
14:05 -9.7 °C -13.4 °C 34750.5 hPa WSW 20.8 km/h 31.1 km/h 64 % 0 mm 810 W/m2
14:10 -9.4 °C -13.3 °C 34750.5 hPa WNW 20.8 km/h 31.1 km/h 63 % 0 mm 807 W/m2
14:15 -9.5 °C -13.1 °C 34750.5 hPa WSW 15.6 km/h 28.5 km/h 65 % 0 mm 812 W/m2
14:20 -9.4 °C -13.4 °C 34740.4 hPa West 20.8 km/h 25.9 km/h 62 % 0 mm 805 W/m2
14:25 -9.5 °C -13.8 °C 34740.4 hPa SW 2.6 km/h 23.3 km/h 60 % 0 mm 807 W/m2
14:30 -9.4 °C -13.9 °C 34740.4 hPa West 10.3 km/h 28.5 km/h 58 % 0 mm 807 W/m2
14:35 -9.4 °C -13.9 °C 34740.4 hPa WNW 20.8 km/h 28.5 km/h 58 % 0 mm 805 W/m2
14:40 -9.4 °C -13.8 °C 34740.4 hPa West 18.2 km/h 25.9 km/h 59 % 0 mm 795 W/m2
14:45 -9.3 °C -13.4 °C 34740.4 hPa West 7.7 km/h 31.1 km/h 61 % 0 mm 786 W/m2
14:50 -9 °C -13.2 °C 34740.4 hPa WSW 23.3 km/h 31.1 km/h 61 % 0 mm 784 W/m2
14:55 -9.3 °C -13.1 °C 34740.4 hPa West 12.9 km/h 31.1 km/h 64 % 0 mm 777 W/m2
15:00 -9.2 °C -12.9 °C 34740.4 hPa West 10.3 km/h 31.1 km/h 64 % 0 mm 779 W/m2
15:05 -9.4 °C -13.6 °C 34740.4 hPa West 20.8 km/h 28.5 km/h 61 % 0 mm 770 W/m2
15:10 -9.3 °C -13.2 °C 34740.4 hPa West 7.7 km/h 28.5 km/h 63 % 0 mm 763 W/m2
15:15 -9.5 °C -13.3 °C 34740.4 hPa WSW 18.2 km/h 33.6 km/h 63 % 0 mm 759 W/m2
15:20 -9.5 °C -13.1 °C 34740.4 hPa WSW 25.9 km/h 33.6 km/h 65 % 0 mm 752 W/m2
15:25 -9.6 °C -13.5 °C 34740.4 hPa West 31.1 km/h 33.6 km/h 63 % 0 mm 747 W/m2
15:30 -9.6 °C -12.9 °C 34740.4 hPa NW 10.3 km/h 36.2 km/h 67 % 0 mm 737 W/m2
15:35 -9.6 °C -13.4 °C 34740.4 hPa WNW 10.3 km/h 36.2 km/h 63 % 0 mm 737 W/m2
15:40 -9.3 °C -12.7 °C 34726.8 hPa WNW 23.3 km/h 33.6 km/h 67 % 0 mm 724 W/m2
15:45 -9.5 °C -13.1 °C 34726.8 hPa WNW 12.9 km/h 31.1 km/h 65 % 0 mm 715 W/m2
15:50 -9.3 °C -12.7 °C 34740.4 hPa WSW 23.3 km/h 38.8 km/h 67 % 0 mm 707 W/m2
15:55 -9.3 °C -13 °C 34726.8 hPa SW 12.9 km/h 38.8 km/h 65 % 0 mm 707 W/m2
16:00 -9.6 °C -12.9 °C 34726.8 hPa West 20.8 km/h 36.2 km/h 67 % 0 mm 701 W/m2
16:05 -9.4 °C -13.2 °C 34726.8 hPa WSW 15.6 km/h 36.2 km/h 64 % 0 mm 689 W/m2
16:10 -9.3 °C -13.1 °C 34726.8 hPa NW 10.3 km/h 36.2 km/h 64 % 0 mm 682 W/m2
16:15 -9.3 °C -13.1 °C 34726.8 hPa WNW 7.7 km/h 31.1 km/h 64 % 0 mm 666 W/m2
16:20 -9.2 °C -13.1 °C 34726.8 hPa West 12.9 km/h 33.6 km/h 63 % 0 mm 663 W/m2
16:25 -9.5 °C -12.9 °C 34726.8 hPa West 10.3 km/h 36.2 km/h 67 % 0 mm 670 W/m2
16:30 -9.6 °C -13.3 °C 34726.8 hPa West 23.3 km/h 38.8 km/h 64 % 0 mm 638 W/m2
16:35 -9.7 °C -13.1 °C 34716.7 hPa West 12.9 km/h 38.8 km/h 67 % 0 mm 621 W/m2
16:40 -9.6 °C -13.2 °C 34716.7 hPa WNW 18.2 km/h 38.8 km/h 65 % 0 mm 606 W/m2
16:45 -9.6 °C -13.1 °C 34716.7 hPa West 15.6 km/h 31.1 km/h 66 % 0 mm 601 W/m2
16:50 -9.4 °C -12.8 °C 34716.7 hPa WNW 23.3 km/h 31.1 km/h 67 % 0 mm 587 W/m2
16:55 -9.5 °C -13.2 °C 34716.7 hPa West 25.9 km/h 28.5 km/h 64 % 0 mm 571 W/m2
17:00 -9.5 °C -13 °C 34716.7 hPa WSW 20.8 km/h 28.5 km/h 66 % 0 mm 559 W/m2
17:05 -9.6 °C -13.4 °C 34716.7 hPa WNW 23.3 km/h 33.6 km/h 64 % 0 mm 543 W/m2
17:10 -9.6 °C -13.2 °C 34716.7 hPa West 28.5 km/h 33.6 km/h 65 % 0 mm 526 W/m2
17:15 -9.6 °C -12.8 °C 34716.7 hPa West 31.1 km/h 38.8 km/h 68 % 0 mm 550 W/m2
17:20 -9.6 °C -13.2 °C 34716.7 hPa West 7.7 km/h 38.8 km/h 65 % 0 mm 527 W/m2
17:25 -9.7 °C -13.3 °C 34703.1 hPa WNW 23.3 km/h 38.8 km/h 65 % 0 mm 508 W/m2
17:30 -9.8 °C -13.3 °C 34703.1 hPa NW 15.6 km/h 38.8 km/h 66 % 0 mm 499 W/m2
17:35 -9.8 °C -13.6 °C 34703.1 hPa WNW 23.3 km/h 33.6 km/h 64 % 0 mm 480 W/m2
17:40 -10 °C -13.3 °C 34703.1 hPa WSW 18.2 km/h 36.2 km/h 67 % 0 mm 462 W/m2
17:45 -9.9 °C -13.3 °C 34703.1 hPa WNW 10.3 km/h 38.8 km/h 67 % 0 mm 425 W/m2
17:50 -9.8 °C -13.2 °C 34703.1 hPa NW 7.7 km/h 38.8 km/h 66 % 0 mm 429 W/m2
17:55 -9.9 °C -13 °C 34703.1 hPa West 7.7 km/h 36.2 km/h 69 % 0 mm 418 W/m2
18:00 -9.9 °C -13.3 °C 34703.1 hPa NNW 12.9 km/h 33.6 km/h 66 % 0 mm 403 W/m2
18:05 -9.9 °C -13.2 °C 34703.1 hPa West 10.3 km/h 33.6 km/h 68 % 0 mm 381 W/m2
18:10 -9.9 °C -13.2 °C 34703.1 hPa WSW 20.8 km/h 33.6 km/h 68 % 0 mm 371 W/m2
18:15 -10.1 °C -13.3 °C 34693 hPa West 12.9 km/h 31.1 km/h 68 % 0 mm 362 W/m2
18:20 -9.9 °C -13.3 °C 34693 hPa West 7.7 km/h 28.5 km/h 67 % 0 mm 350 W/m2
18:25 -9.9 °C -13.5 °C 34693 hPa NW 15.6 km/h 28.5 km/h 65 % 0 mm 338 W/m2
18:30 -10 °C -13.7 °C 34693 hPa West 18.2 km/h 31.1 km/h 64 % 0 mm 327 W/m2
18:35 -9.9 °C -13.6 °C 34693 hPa WNW 7.7 km/h 31.1 km/h 65 % 0 mm 308 W/m2
18:40 -9.9 °C -13.3 °C 34693 hPa WNW 12.9 km/h 28.5 km/h 67 % 0 mm 297 W/m2
18:45 -9.9 °C -13.2 °C 34693 hPa West 15.6 km/h 28.5 km/h 68 % 0 mm 285 W/m2
18:50 -10 °C -13.2 °C 34703.1 hPa West 12.9 km/h 31.1 km/h 68 % 0 mm 267 W/m2
18:55 -10.1 °C -13.4 °C 34693 hPa WNW 7.7 km/h 36.2 km/h 67 % 0 mm 250 W/m2
19:00 -10.2 °C -13.3 °C 34693 hPa WSW 12.9 km/h 36.2 km/h 69 % 0 mm 239 W/m2
19:05 -10.2 °C -13.4 °C 34693 hPa NW 15.6 km/h 31.1 km/h 68 % 0 mm 225 W/m2
19:10 -10.3 °C -13.4 °C 34693 hPa WSW 12.9 km/h 31.1 km/h 69 % 0 mm 211 W/m2
19:15 -10.3 °C -13.4 °C 34693 hPa WNW 12.9 km/h 23.3 km/h 69 % 0 mm 148 W/m2
19:20 -10.4 °C -13.4 °C 34693 hPa SW 12.9 km/h 28.5 km/h 70 % 0 mm 83 W/m2
19:25 -10.4 °C -13.2 °C 34693 hPa WNW 12.9 km/h 28.5 km/h 72 % 0 mm 65 W/m2
19:30 -10.4 °C -13 °C 34693 hPa West 5.1 km/h 25.9 km/h 74 % 0 mm 63 W/m2
19:35 -10.4 °C -13.1 °C 34693 hPa WNW 12.9 km/h 25.9 km/h 73 % 0 mm 58 W/m2
19:40 -10.4 °C -13 °C 34693 hPa SW 10.3 km/h 25.9 km/h 74 % 0 mm 54 W/m2
19:45 -10.5 °C -13 °C 34693 hPa West 12.9 km/h 25.9 km/h 74 % 0 mm 53 W/m2
19:50 -10.5 °C -13.1 °C 34693 hPa WNW 5.1 km/h 20.8 km/h 74 % 0 mm 51 W/m2
19:55 -10.6 °C -13.1 °C 34693 hPa West 15.6 km/h 25.9 km/h 74 % 0 mm 74 W/m2
20:00 -10.6 °C -13.1 °C 34693 hPa West 15.6 km/h 25.9 km/h 74 % 0 mm 56 W/m2
20:05 -10.7 °C -13.2 °C 34693 hPa WNW 5.1 km/h 20.8 km/h 74 % 0 mm 40 W/m2
20:10 -10.8 °C -13.4 °C 34693 hPa NW 5.1 km/h 23.3 km/h 73 % 0 mm 39 W/m2
20:15 -10.9 °C -13.4 °C 34693 hPa NW 10.3 km/h 25.9 km/h 74 % 0 mm 32 W/m2
20:25 -11 °C -13.4 °C 34693 hPa West 18.2 km/h 20.8 km/h 75 % 0 mm 25 W/m2
20:30 -11 °C -13.4 °C 34693 hPa West 5.1 km/h 20.8 km/h 75 % 0 mm 21 W/m2
20:35 -11.1 °C -13.4 °C 34693 hPa WNW 7.7 km/h 20.8 km/h 76 % 0 mm 18 W/m2
20:40 -11.2 °C -13.5 °C 34693 hPa WNW 18.2 km/h 20.8 km/h 76 % 0 mm 14 W/m2
20:45 -11.3 °C -13.6 °C 34693 hPa WNW 18.2 km/h 20.8 km/h 76 % 0 mm 11 W/m2
20:50 -11.3 °C -13.5 °C 34693 hPa West 2.6 km/h 18.2 km/h 77 % 0 mm 9 W/m2
20:55 -11.4 °C -13.5 °C 34693 hPa West 7.7 km/h 18.2 km/h 78 % 0 mm 5 W/m2
21:00 -11.6 °C -13.5 °C 34693 hPa WNW 12.9 km/h 18.2 km/h 79 % 0 mm 0 W/m2
21:05 -11.7 °C -13.5 °C 34693 hPa WNW 10.3 km/h 15.6 km/h 80 % 0 mm 0 W/m2
21:10 -11.7 °C -13.5 °C 34693 hPa WNW 7.7 km/h 18.2 km/h 80 % 0 mm 0 W/m2
21:15 -11.7 °C -13.4 °C 34693 hPa WNW 10.3 km/h 18.2 km/h 81 % 0 mm 0 W/m2
21:20 -11.8 °C -13.6 °C 34693 hPa NW 7.7 km/h 15.6 km/h 81 % 0 mm 0 W/m2
21:25 -11.8 °C -13.5 °C 34693 hPa WNW 12.9 km/h 18.2 km/h 82 % 0 mm 0 W/m2
21:30 -12 °C -13.5 °C 34693 hPa WNW 10.3 km/h 18.2 km/h 83 % 0 mm 0 W/m2
21:35 -12.1 °C -13.6 °C 34693 hPa NNW 2.6 km/h 18.2 km/h 84 % 0 mm 0 W/m2
21:40 -12.2 °C -13.6 °C 34693 hPa NNW 2.6 km/h 18.2 km/h 84 % 0 mm 0 W/m2
21:45 -12.3 °C -13.6 °C 34693 hPa NNW 2.6 km/h 15.6 km/h 85 % 0 mm 0 W/m2
21:50 -12.4 °C -13.6 °C 34693 hPa Calm   10.3 km/h 86 % 0 mm 0 W/m2
21:55 -12.4 °C -13.6 °C 34693 hPa NW 5.1 km/h 15.6 km/h 87 % 0 mm 0 W/m2
22:00 -12.5 °C -13.6 °C 34703.1 hPa WNW 7.7 km/h 15.6 km/h 88 % 0 mm 0 W/m2
22:05 -12.6 °C -13.7 °C 34703.1 hPa NW 5.1 km/h 10.3 km/h 88 % 0 mm 0 W/m2
22:10 -12.7 °C -13.7 °C 34703.1 hPa Calm   10.3 km/h 89 % 0 mm 0 W/m2
22:15 -12.7 °C -13.7 °C 34703.1 hPa NW 2.6 km/h 7.7 km/h 89 % 0 mm 0 W/m2
22:20 -12.7 °C -13.6 °C 34703.1 hPa Calm   10.3 km/h 90 % 0 mm 0 W/m2
22:25 -12.9 °C -13.7 °C 34703.1 hPa Calm   10.3 km/h 90 % 0 mm 0 W/m2
22:30 -12.9 °C -13.8 °C 34703.1 hPa NNW 2.6 km/h 7.7 km/h 90 % 0 mm 0 W/m2
22:35 -13 °C -13.8 °C 34703.1 hPa WNW 2.6 km/h 10.3 km/h 91 % 0 mm 0 W/m2
22:40 -13.1 °C -13.8 °C 34703.1 hPa NW 5.1 km/h 10.3 km/h 91 % 0 mm 0 W/m2
22:45 -13.1 °C -13.8 °C 34703.1 hPa Calm   7.7 km/h 92 % 0 mm 0 W/m2
22:50 -13.2 °C -13.8 °C 34703.1 hPa Calm   7.7 km/h 92 % 0 mm 0 W/m2
22:55 -13.2 °C -13.8 °C 34703.1 hPa Calm   5.1 km/h 92 % 0 mm 0 W/m2
23:00 -13.2 °C -13.8 °C 34703.1 hPa Calm   7.7 km/h 93 % 0 mm 0 W/m2
23:05 -13.1 °C -13.7 °C 34703.1 hPa NW 2.6 km/h 7.7 km/h 93 % 0 mm 0 W/m2
23:10 -13.2 °C -13.7 °C 34703.1 hPa Calm   7.7 km/h 93 % 0 mm 0 W/m2
23:15 -13.2 °C -13.7 °C 34703.1 hPa Calm   7.7 km/h 93 % 0 mm 0 W/m2
23:20 -13.2 °C -13.8 °C 34703.1 hPa Calm   2.6 km/h 93 % 0 mm 0 W/m2
23:25 -13.2 °C -13.7 °C 34693 hPa Calm   2.6 km/h 94 % 0 mm 0 W/m2
23:30 -13.3 °C -13.8 °C 34693 hPa Calm   2.6 km/h 94 % 0 mm 0 W/m2
23:35 -13.4 °C -13.9 °C 34693 hPa Calm   2.6 km/h 94 % 0 mm 0 W/m2
23:40 -13.3 °C -13.7 °C 34693 hPa Calm   2.6 km/h 95 % 0 mm 0 W/m2
23:45 -13.2 °C -13.7 °C 34693 hPa Calm     94 % 0 mm 0 W/m2
23:50 -13.3 °C -13.8 °C 34693 hPa Calm     94 % 0 mm 0 W/m2
23:55 -13.2 °C -13.7 °C 34703.1 hPa Calm     94 % 0 mm 0 W/m2
Avec l'autorisation de Weather Underground - 1.75 mb